Regional Weather Roundup
Issued by NWS Kansas City/Pleasant Hill, MO

Home | Current Version | Previous Version | Text Only | Print | Product List | Glossary On
Versions: 1 2 3 4 5 6 7 8 9 10 11 12 13 14 15 16 17 18 19 20 21 22 23 24 25 26 27
000
ASUS43 KEAX 270210
RWREAX

WEATHER ROUNDUP FOR EASTERN KANSAS AND NORTHWEST MISSOURI
NATIONAL WEATHER SERVICE KANSAS CITY/PLEASANT HILL MO
900 PM CDT MON JUN 26 2017

KSZ040-057-103>105-MOZ028-029-037-043-270300-
...KANSAS CITY METROPOLITAN AREA...

CITY           SKY/WX    TMP DP  RH WIND       PRES   REMARKS
K.C. INTL      PTCLDY    64  60  87 SE7       30.10F
K.C. DOWNTOWN  MOCLDY    66  59  78 E6        30.09F
LEES SUMMIT    MOCLDY    63  60  90 E7        30.12R
OLATHE - IXD   LGT RAIN  63  60  90 S8        30.09F
OLATHE - OJC   LGT RAIN  64  59  83 SE9       30.08F
LAWRENCE       CLOUDY    64  62  93 CALM      30.10R

$$

MOZ001>008-011>017-020>025-030>033-038>040-044>046-053-054-270300-
...NORTHERN AND CENTRAL MISSOURI...

CITY           SKY/WX    TMP DP  RH WIND       PRES   REMARKS
ST. JOSEPH     CLEAR     66  60  81 SE3       30.09F
MOSBY          PTCLDY    64  61  88 S3        30.10F
WARRENSBURG    CLOUDY    61  61 100 E3        30.11S
WHITEMAN AFB   NOT AVBL
CLINTON        LGT RAIN  66  57  72 NE6       30.12S
SEDALIA        LGT RAIN  64  64 100 S5        30.13S
WARSAW         NOT AVBL
CHILLICOTHE      N/A     64  59  83 CALM      30.11F
KIRKSVILLE     CLEAR     64  56  75 W3        30.11S

$$

MOZ041-047>049-056>058-063>065-088>090-097-270300-
...EASTERN AND SOUTHERN MISSOURI...

CITY           SKY/WX    TMP DP  RH WIND       PRES   REMARKS
ST. LOUIS INTL PTCLDY    68  53  58 W6        30.11R
SPIRIT OF STL  MOCLDY    59  55  87 SW6       30.10S
COLUMBIA       CLOUDY    63  61  93 CALM      30.12S
JEFFERSON CITY CLOUDY    65  61  87 CALM      30.12R
ROLLA          MOCLDY    59  57  93 CALM      30.12R
OSAGE BEACH    CLOUDY    63  60  90 N3        30.13R
SPRINGFIELD    CLOUDY    65  58  78 SE12      30.10S
BRANSON        PTCLDY    66  61  82 E6        30.12S
JOPLIN         CLEAR     69  65  86 E7        30.07S
WEST PLAINS    CLOUDY    62  59  90 NE3       30.14S

$$

IAZ060-094-KSZ022-034>040-054-083-096-NEZ052-066-093-270300-
...KANSAS...SOUTHEAST NEBRASKA AND IOWA...

CITY           SKY/WX    TMP DP  RH WIND       PRES   REMARKS
TOPEKA         PTCLDY    65  63  93 E5        30.10R
MANHATTAN      CLEAR     66  62  87 E8        30.08S
EMPORIA        CLOUDY    72  60  66 E15       30.08R
CHANUTE        PTCLDY    72  62  71 E7        30.05S
WICHITA        MOCLDY    79  61  53 VRB5      30.00R
OMAHA          PTCLDY    70  51  51 NE6       30.11R
LINCOLN        MOCLDY    69  52  54 E7        30.11S
FALLS CITY     CLEAR     66  60  81 CALM      30.09S
LAMONI         MOCLDY    67  56  67 CALM      30.10R
DES MOINES     PTCLDY    68  42  38 N6        30.11S

$$





USA.gov is the U.S. government's official web portal to all federal, state and local government web resources and services.